User: anonymous   Login
Location: Brno
(49.2000°N, 16.6330°E)
Time: 18:57:53
(UTC+02:00)
Language:

Meteor 1-4 Rocket - Orbit

View from above orbital plane
View from above orbital plane
View from above satellite
View from above satellite

Ground track
Ground track

The orbit data is extracted from the following two-line orbital elements,

1 04394U 70037B   16273.14644373  .00002655  00000-0  95863-4 0  9991
2 04394  81.2435 321.1560 0040431 295.5452  64.1605 15.27328391524911
Epoch (UTC): 29 September 2016 03:30:52
Eccentricity: 0.0040431
inclination: 81.2435°
perigee height: 456 km
apogee height: 511 km
right ascension of ascending node: 321.1560°
argument of perigee: 295.5452°
revolutions per day: 15.27328391
mean anomaly at epoch: 64.1605°
orbit number at epoch: 52491

The dashed part of the orbit path shows where the satellite is in the earth's shadow,  

DLR